Year,Month,Day,Hour,Minute,Value (Times are PST for temperature in C)
2008,09,26,00,00,12.70
2008,09,26,00,01,12.70
2008,09,26,00,02,12.70
2008,09,26,00,03,12.70
2008,09,26,00,04,12.70
2008,09,26,00,05,12.70
2008,09,26,00,06,12.70
2008,09,26,00,07,12.70
2008,09,26,00,08,12.70
2008,09,26,00,09,12.70
2008,09,26,00,10,12.70
2008,09,26,00,11,12.70
2008,09,26,00,12,12.70
2008,09,26,00,13,12.70
2008,09,26,00,14,12.70
2008,09,26,00,15,12.80
2008,09,26,00,16,12.70
2008,09,26,00,17,12.70
2008,09,26,00,18,12.80
2008,09,26,00,19,12.70
2008,09,26,00,20,12.80
2008,09,26,00,21,12.80
2008,09,26,00,22,12.80
2008,09,26,00,23,12.80
2008,09,26,00,24,12.80
2008,09,26,00,25,12.80
2008,09,26,00,26,12.80
2008,09,26,00,27,12.80
2008,09,26,00,28,12.70
2008,09,26,00,29,12.70
2008,09,26,00,30,12.70
2008,09,26,00,31,12.70
2008,09,26,00,32,12.70
2008,09,26,00,33,12.70
2008,09,26,00,34,12.70
2008,09,26,00,35,12.70
2008,09,26,00,36,12.70
2008,09,26,00,37,12.70
2008,09,26,00,38,12.70
2008,09,26,00,39,12.70
2008,09,26,00,40,12.70
2008,09,26,00,41,12.70
2008,09,26,00,42,12.70
2008,09,26,00,43,12.70
2008,09,26,00,44,12.70
2008,09,26,00,45,12.70
2008,09,26,00,46,12.70
2008,09,26,00,47,12.70
2008,09,26,00,48,12.70
2008,09,26,00,49,12.70
2008,09,26,00,50,12.70
2008,09,26,00,51,12.70
2008,09,26,00,52,12.70
2008,09,26,00,53,12.70
2008,09,26,00,54,12.70
2008,09,26,00,55,12.70
2008,09,26,00,56,12.70
2008,09,26,00,57,12.70
2008,09,26,00,58,12.70
2008,09,26,00,59,12.70
2008,09,26,01,00,12.70
2008,09,26,01,01,12.70
2008,09,26,01,02,12.70
2008,09,26,01,03,12.70
2008,09,26,01,04,12.70
2008,09,26,01,05,12.70
2008,09,26,01,06,12.70
2008,09,26,01,07,12.70
2008,09,26,01,08,12.70
2008,09,26,01,09,12.70
2008,09,26,01,10,12.70
2008,09,26,01,11,12.70
2008,09,26,01,12,12.70
2008,09,26,01,13,12.70
2008,09,26,01,14,12.70
2008,09,26,01,15,12.70
2008,09,26,01,16,12.70
2008,09,26,01,17,12.70
2008,09,26,01,18,12.70
2008,09,26,01,19,12.70
2008,09,26,01,20,12.70
2008,09,26,01,21,12.70
2008,09,26,01,22,12.70
2008,09,26,01,23,12.70
2008,09,26,01,24,12.70
2008,09,26,01,25,12.70
2008,09,26,01,26,12.70
2008,09,26,01,27,12.60
2008,09,26,01,28,12.60
2008,09,26,01,29,12.60
2008,09,26,01,30,12.60
2008,09,26,01,31,12.60
2008,09,26,01,32,12.60
2008,09,26,01,33,12.60
2008,09,26,01,34,12.60
2008,09,26,01,35,12.60
2008,09,26,01,36,12.70
2008,09,26,01,37,12.70
2008,09,26,01,38,12.70
2008,09,26,01,39,12.70
2008,09,26,01,40,12.70
2008,09,26,01,41,12.70
2008,09,26,01,42,12.70
2008,09,26,01,43,12.70
2008,09,26,01,44,12.60
2008,09,26,01,45,12.60
2008,09,26,01,46,12.60
2008,09,26,01,47,12.60
2008,09,26,01,48,12.60
2008,09,26,01,49,12.60
2008,09,26,01,50,12.60
2008,09,26,01,51,12.60
2008,09,26,01,52,12.60
2008,09,26,01,53,12.60
2008,09,26,01,54,12.60
2008,09,26,01,55,12.50
2008,09,26,01,56,12.50
2008,09,26,01,57,12.50
2008,09,26,01,58,12.50
2008,09,26,01,59,12.40
2008,09,26,02,00,12.40
2008,09,26,02,01,12.40
2008,09,26,02,02,12.40
2008,09,26,02,03,12.40
2008,09,26,02,04,12.40
2008,09,26,02,05,12.30
2008,09,26,02,06,12.30
2008,09,26,02,07,12.30
2008,09,26,02,08,12.30
2008,09,26,02,09,12.30
2008,09,26,02,10,12.30
2008,09,26,02,11,12.30
2008,09,26,02,12,12.30
2008,09,26,02,13,12.30
2008,09,26,02,14,12.30
2008,09,26,02,15,12.30
2008,09,26,02,16,12.30
2008,09,26,02,17,12.30
2008,09,26,02,18,12.30
2008,09,26,02,19,12.30
2008,09,26,02,20,12.30
2008,09,26,02,21,12.30
2008,09,26,02,22,12.30
2008,09,26,02,23,12.30
2008,09,26,02,24,12.30
2008,09,26,02,25,12.30
2008,09,26,02,26,12.30
2008,09,26,02,27,12.30
2008,09,26,02,28,12.30
2008,09,26,02,29,12.30
2008,09,26,02,30,12.30
2008,09,26,02,31,12.30
2008,09,26,02,32,12.30
2008,09,26,02,33,12.30
2008,09,26,02,34,12.30
2008,09,26,02,35,12.30
2008,09,26,02,36,12.30
2008,09,26,02,37,12.30
2008,09,26,02,38,12.30
2008,09,26,02,39,12.30
2008,09,26,02,40,12.30
2008,09,26,02,41,12.30
2008,09,26,02,42,12.30
2008,09,26,02,43,12.30
2008,09,26,02,44,12.30
2008,09,26,02,45,12.30
2008,09,26,02,46,12.30
2008,09,26,02,47,12.30
2008,09,26,02,48,12.30
2008,09,26,02,49,12.20
2008,09,26,02,50,12.20
2008,09,26,02,51,12.30
2008,09,26,02,52,12.30
2008,09,26,02,53,12.30
2008,09,26,02,54,12.30
2008,09,26,02,55,12.30
2008,09,26,02,56,12.30
2008,09,26,02,57,12.30
2008,09,26,02,58,12.30
2008,09,26,02,59,12.30
2008,09,26,03,00,12.20
2008,09,26,03,01,12.20
2008,09,26,03,02,12.20
2008,09,26,03,03,12.10
2008,09,26,03,04,12.10
2008,09,26,03,05,12.10
2008,09,26,03,06,12.00
2008,09,26,03,07,12.00
2008,09,26,03,08,11.90
2008,09,26,03,09,11.90
2008,09,26,03,10,11.90
2008,09,26,03,11,11.90
2008,09,26,03,12,11.80
2008,09,26,03,13,11.80
2008,09,26,03,14,11.80
2008,09,26,03,15,11.80
2008,09,26,03,16,11.80
2008,09,26,03,17,11.80
2008,09,26,03,18,11.80
2008,09,26,03,19,11.80
2008,09,26,03,20,11.80
2008,09,26,03,21,11.80
2008,09,26,03,22,11.80
2008,09,26,03,23,11.80
2008,09,26,03,24,11.80
2008,09,26,03,25,11.80
2008,09,26,03,26,11.70
2008,09,26,03,27,11.70
2008,09,26,03,28,11.70
2008,09,26,03,29,11.70
2008,09,26,03,30,11.70
2008,09,26,03,31,11.70
2008,09,26,03,32,11.70
2008,09,26,03,33,11.70
2008,09,26,03,34,11.80
2008,09,26,03,35,11.80
2008,09,26,03,36,11.80
2008,09,26,03,37,11.80
2008,09,26,03,38,11.80
2008,09,26,03,39,11.80
2008,09,26,03,40,11.80
2008,09,26,03,41,11.80
2008,09,26,03,42,11.80
2008,09,26,03,43,11.80
2008,09,26,03,44,11.80
2008,09,26,03,45,11.80
2008,09,26,03,46,11.80
2008,09,26,03,47,11.80
2008,09,26,03,48,11.80
2008,09,26,03,49,11.80
2008,09,26,03,50,11.80
2008,09,26,03,51,11.80
2008,09,26,03,52,11.80
2008,09,26,03,53,11.80
2008,09,26,03,54,11.80
2008,09,26,03,55,11.80
2008,09,26,03,56,11.80
2008,09,26,03,57,11.80
2008,09,26,03,58,11.80
2008,09,26,03,59,11.80
2008,09,26,04,00,11.80
2008,09,26,04,01,11.80
2008,09,26,04,02,11.70
2008,09,26,04,03,11.70
2008,09,26,04,04,11.70
2008,09,26,04,05,11.60
2008,09,26,04,06,11.60
2008,09,26,04,07,11.60
2008,09,26,04,08,11.60
2008,09,26,04,09,11.60
2008,09,26,04,10,11.60
2008,09,26,04,11,11.60
2008,09,26,04,12,11.60
2008,09,26,04,13,11.60
2008,09,26,04,14,11.60
2008,09,26,04,15,11.60
2008,09,26,04,16,11.60
2008,09,26,04,17,11.60
2008,09,26,04,18,11.60
2008,09,26,04,19,11.70
2008,09,26,04,20,11.70
2008,09,26,04,21,11.70
2008,09,26,04,22,11.70
2008,09,26,04,23,11.70
2008,09,26,04,24,11.70
2008,09,26,04,25,11.70
2008,09,26,04,26,11.70
2008,09,26,04,27,11.70
2008,09,26,04,28,11.70
2008,09,26,04,29,11.70
2008,09,26,04,30,11.70
2008,09,26,04,31,11.70
2008,09,26,04,32,11.70
2008,09,26,04,33,11.70
2008,09,26,04,34,11.70
2008,09,26,04,35,11.70
2008,09,26,04,36,11.70
2008,09,26,04,37,11.70
2008,09,26,04,38,11.70
2008,09,26,04,39,11.70
2008,09,26,04,40,11.70
2008,09,26,04,41,11.70
2008,09,26,04,42,11.60
2008,09,26,04,43,11.60
2008,09,26,04,44,11.60
2008,09,26,04,45,11.60
2008,09,26,04,46,11.60
2008,09,26,04,47,11.60
2008,09,26,04,48,11.60
2008,09,26,04,49,11.50
2008,09,26,04,50,11.50
2008,09,26,04,51,11.50
2008,09,26,04,52,11.50
2008,09,26,04,53,11.50
2008,09,26,04,54,11.50
2008,09,26,04,55,11.50
2008,09,26,04,56,11.50
2008,09,26,04,57,11.40
2008,09,26,04,58,11.40
2008,09,26,04,59,11.40
2008,09,26,05,00,11.40
2008,09,26,05,01,11.40
2008,09,26,05,02,11.40
2008,09,26,05,03,11.40
2008,09,26,05,04,11.40
2008,09,26,05,05,11.40
2008,09,26,05,06,11.40
2008,09,26,05,07,11.40
2008,09,26,05,08,11.30
2008,09,26,05,09,11.30
2008,09,26,05,10,11.30
2008,09,26,05,11,11.30
2008,09,26,05,12,11.30
2008,09,26,05,13,11.30
2008,09,26,05,14,11.30
2008,09,26,05,15,11.30
2008,09,26,05,16,11.30
2008,09,26,05,17,11.30
2008,09,26,05,18,11.30
2008,09,26,05,19,11.20
2008,09,26,05,20,11.20
2008,09,26,05,21,11.20
2008,09,26,05,22,11.20
2008,09,26,05,23,11.20
2008,09,26,05,24,11.20
2008,09,26,05,25,11.20
2008,09,26,05,26,11.20
2008,09,26,05,27,11.20
2008,09,26,05,28,11.20
2008,09,26,05,29,11.20
2008,09,26,05,30,11.20
2008,09,26,05,31,11.20
2008,09,26,05,32,11.20
2008,09,26,05,33,11.30
2008,09,26,05,34,11.30
2008,09,26,05,35,11.30
2008,09,26,05,36,11.30
2008,09,26,05,37,11.30
2008,09,26,05,38,11.20
2008,09,26,05,39,11.20
2008,09,26,05,40,11.20
2008,09,26,05,41,11.20
2008,09,26,05,42,11.20
2008,09,26,05,43,11.20
2008,09,26,05,44,11.20
2008,09,26,05,45,11.30
2008,09,26,05,46,11.30
2008,09,26,05,47,11.30
2008,09,26,05,48,11.30
2008,09,26,05,49,11.30
2008,09,26,05,50,11.30
2008,09,26,05,51,11.30
2008,09,26,05,52,11.30
2008,09,26,05,53,11.30
2008,09,26,05,54,11.30
2008,09,26,05,55,11.30
2008,09,26,05,56,11.30
2008,09,26,05,57,11.30
2008,09,26,05,58,11.30
2008,09,26,05,59,11.30
2008,09,26,06,00,11.30
2008,09,26,06,01,11.30
2008,09,26,06,02,11.30
2008,09,26,06,03,11.30
2008,09,26,06,04,11.30
2008,09,26,06,05,11.30
2008,09,26,06,06,11.30
2008,09,26,06,07,11.30
2008,09,26,06,08,11.30
2008,09,26,06,09,11.30
2008,09,26,06,10,11.30
2008,09,26,06,11,11.30
2008,09,26,06,12,11.30
2008,09,26,06,13,11.40
2008,09,26,06,14,11.30
2008,09,26,06,15,11.40
2008,09,26,06,16,11.40
2008,09,26,06,17,11.40
2008,09,26,06,18,11.40
2008,09,26,06,19,11.40
2008,09,26,06,20,11.40
2008,09,26,06,21,11.40
2008,09,26,06,22,11.40
2008,09,26,06,23,11.40
2008,09,26,06,24,11.40
2008,09,26,06,25,11.40
2008,09,26,06,26,11.40
2008,09,26,06,27,11.40
2008,09,26,06,28,11.40
2008,09,26,06,29,11.40
2008,09,26,06,30,11.40
2008,09,26,06,31,11.40
2008,09,26,06,32,11.40
2008,09,26,06,33,11.40
2008,09,26,06,34,11.40
2008,09,26,06,35,11.40
2008,09,26,06,36,11.40
2008,09,26,06,37,11.40
2008,09,26,06,38,11.40
2008,09,26,06,39,11.40
2008,09,26,06,40,11.40
2008,09,26,06,41,11.40
2008,09,26,06,42,11.40
2008,09,26,06,43,11.40
2008,09,26,06,44,11.40
2008,09,26,06,45,11.40
2008,09,26,06,46,11.40
2008,09,26,06,47,11.40
2008,09,26,06,48,11.40
2008,09,26,06,49,11.40
2008,09,26,06,50,11.40
2008,09,26,06,51,11.40
2008,09,26,06,52,11.40
2008,09,26,06,53,11.40
2008,09,26,06,54,11.40
2008,09,26,06,55,11.40
2008,09,26,06,56,11.40
2008,09,26,06,57,11.50
2008,09,26,06,58,11.50
2008,09,26,06,59,11.50
2008,09,26,07,00,11.50
2008,09,26,07,01,11.50
2008,09,26,07,02,11.50
2008,09,26,07,03,11.50
2008,09,26,07,04,11.50
2008,09,26,07,05,11.50
2008,09,26,07,06,11.50
2008,09,26,07,07,11.50
2008,09,26,07,08,11.60
2008,09,26,07,09,11.60
2008,09,26,07,10,11.60
2008,09,26,07,11,11.60
2008,09,26,07,12,11.60
2008,09,26,07,13,11.60
2008,09,26,07,14,11.60
2008,09,26,07,15,11.60
2008,09,26,07,16,11.60
2008,09,26,07,17,11.60
2008,09,26,07,18,11.60
2008,09,26,07,19,11.60
2008,09,26,07,20,11.60
2008,09,26,07,21,11.60
2008,09,26,07,22,11.60
2008,09,26,07,23,11.60
2008,09,26,07,24,11.60
2008,09,26,07,25,11.60
2008,09,26,07,26,11.60
2008,09,26,07,27,11.60
2008,09,26,07,28,11.60
2008,09,26,07,29,11.60
2008,09,26,07,30,11.60
2008,09,26,07,31,11.60
2008,09,26,07,32,11.70
2008,09,26,07,33,11.70
2008,09,26,07,34,11.70
2008,09,26,07,35,11.70
2008,09,26,07,36,11.70
2008,09,26,07,37,11.70
2008,09,26,07,38,11.70
2008,09,26,07,39,11.70
2008,09,26,07,40,11.70
2008,09,26,07,41,11.70
2008,09,26,07,42,11.70
2008,09,26,07,43,11.70
2008,09,26,07,44,11.70
2008,09,26,07,45,11.70
2008,09,26,07,46,11.70
2008,09,26,07,47,11.70
2008,09,26,07,48,11.70
2008,09,26,07,49,11.70
2008,09,26,07,50,11.80
2008,09,26,07,51,11.80
2008,09,26,07,52,11.80
2008,09,26,07,53,11.80
2008,09,26,07,54,11.80
2008,09,26,07,55,11.80
2008,09,26,07,56,11.80
2008,09,26,07,57,11.80
2008,09,26,07,58,11.80
2008,09,26,07,59,11.80
2008,09,26,08,00,11.80
2008,09,26,08,01,11.80
2008,09,26,08,02,11.80
2008,09,26,08,03,11.80
2008,09,26,08,04,11.80
2008,09,26,08,05,11.80
2008,09,26,08,06,11.80
2008,09,26,08,07,11.80
2008,09,26,08,08,11.90
2008,09,26,08,09,11.90
2008,09,26,08,10,11.90
2008,09,26,08,11,11.90
2008,09,26,08,12,11.90
2008,09,26,08,13,11.90
2008,09,26,08,14,11.90
2008,09,26,08,15,11.90
2008,09,26,08,16,11.90
2008,09,26,08,17,11.90
2008,09,26,08,18,11.90
2008,09,26,08,19,11.90
2008,09,26,08,20,11.90
2008,09,26,08,21,11.90
2008,09,26,08,22,11.90
2008,09,26,08,23,11.90
2008,09,26,08,24,11.90
2008,09,26,08,25,11.90
2008,09,26,08,26,11.90
2008,09,26,08,27,12.00
2008,09,26,08,28,12.00
2008,09,26,08,29,12.00
2008,09,26,08,30,12.00
2008,09,26,08,31,12.00
2008,09,26,08,32,12.00
2008,09,26,08,33,12.00
2008,09,26,08,34,12.00
2008,09,26,08,35,12.00
2008,09,26,08,36,12.10
2008,09,26,08,37,12.00
2008,09,26,08,38,12.00
2008,09,26,08,39,12.00
2008,09,26,08,40,12.00
2008,09,26,08,41,12.00
2008,09,26,08,42,12.10
2008,09,26,08,43,12.10
2008,09,26,08,44,12.10
2008,09,26,08,45,12.10
2008,09,26,08,46,12.10
2008,09,26,08,47,12.10
2008,09,26,08,48,12.10
2008,09,26,08,49,12.10
2008,09,26,08,50,12.10
2008,09,26,08,51,12.10
2008,09,26,08,52,12.10
2008,09,26,08,53,12.10
2008,09,26,08,54,12.10
2008,09,26,08,55,12.10
2008,09,26,08,56,12.10
2008,09,26,08,57,12.20
2008,09,26,21,22,12.20
